DW6471 Weather Reports


Display with metric or nautical units.
time (UTC)temp
F
wind
direction
speed
MPH
gust
MPH
rain 1hr
in
rain 24hr
in
rain mn
in
humidity
%
barometer
mb
20260905154247 88 2 1.0 2.0 0.00 0.35 0.00 72 1014.4
20260905153747 88 42 1.0 4.0 0.00 0.35 0.00 76 1014.3
20260905153248 87 94 1.0 4.0 0.00 0.35 0.00 75 1014.3
20260905153018 86 119 0.0 2.0 0.00 0.35 0.00 81 1014.3
20260905152247 86 259 0.0 1.0 0.00 0.35 0.00 81 1014.4
20260905151748 85 263 0.0 1.0 0.00 0.35 0.00 82 1014.4
20260905151517 85 262 0.0 0.0 0.00 0.35 0.00 82 1014.5
20260905150747 86 262 0.0 1.0 0.00 0.35 0.00 81 1014.5
20260905150247 86 262 0.0 1.0 0.00 0.35 0.00 81 1014.3
20260905145746 86 262 0.0 2.0 0.00 0.35 0.00 79 1014.4
20260905145515 86 262 0.0 2.0 0.00 0.35 0.00 78 1014.4
20260905144745 87 282 1.0 2.0 0.00 0.35 0.00 77 1014.2
20260905144245 87 283 1.0 2.0 0.00 0.35 0.00 77 1014.3
20260905143750 87 326 0.0 2.0 0.00 0.35 0.00 78 1014.2
20260905143746 87 75 1.0 2.0 0.00 0.35 0.00 77 1014.2
20260905142745 86 229 0.0 2.0 0.00 0.35 0.00 80 1014.3
20260905142515 86 329 0.0 1.0 0.00 0.35 0.00 80 1014.3
20260905141745 86 329 0.0 1.0 0.00 0.35 0.00 79 1014.3
20260905141246 86 330 0.0 1.0 0.00 0.35 0.00 79 1014.3
20260905140744 86 330 1.0 2.0 0.00 0.35 0.00 81 1014.3
20260905140243 85 330 1.0 2.0 0.00 0.35 0.00 81 1014.3
20260905135743 85 69 1.0 3.0 0.00 0.35 0.00 83 1014.3
20260905135243 85 72 1.0 3.0 0.00 0.35 0.00 83 1014.3
20260905134743 84 51 1.0 2.0 0.00 0.35 0.00 84 1014.2
20260905134243 84 51 1.0 2.0 0.00 0.35 0.00 84 1014.2
20260905133743 84 78 1.0 2.0 0.00 0.35 0.00 85 1014.1
20260905133243 84 29 1.0 2.0 0.00 0.35 0.00 85 1014.1
20260905132743 83 78 0.0 2.0 0.00 0.35 0.00 86 1014.1
20260905132243 83 99 0.0 2.0 0.00 0.35 0.00 88 1014.1
20260905131741 82 99 0.0 2.0 0.00 0.35 0.00 89 1014.1
20260905131241 82 79 0.0 2.0 0.00 0.35 0.00 89 1014.1
20260905130741 81 68 0.0 0.0 0.00 0.35 0.00 90 1014.1
20260905130241 81 68 0.0 0.0 0.00 0.35 0.00 91 1014.0
20260905125741 81 68 0.0 2.0 0.00 0.35 0.00 92 1014.0
20260905125241 80 68 0.0 2.0 0.00 0.35 0.00 94 1014.0
20260905124741 80 68 0.0 2.0 0.00 0.35 0.00 95 1013.9
20260905124241 79 68 0.0 1.0 0.00 0.35 0.00 95 1013.9
20260905124012 79 68 0.0 1.0 0.00 0.35 0.00 95 1013.8
20260905123239 78 68 0.0 0.0 0.00 0.35 0.00 95 1013.8
20260905122740 78 68 0.0 0.0 0.00 0.35 0.00 95 1013.8
20260905122239 79 68 0.0 0.0 0.00 0.35 0.00 96 1013.8
20260905121739 78 68 0.0 0.0 0.00 0.35 0.00 96 1013.7
20260905121239 77 68 0.0 0.0 0.00 0.35 0.00 96 1013.7
20260905120739 76 68 0.0 1.0 0.00 0.35 0.00 96 1013.7
20260905120239 76 68 0.0 1.0 0.00 0.35 0.00 96 1013.6
20260905120011 76 68 0.0 0.0 0.00 0.35 0.00 96 1013.6
20260905115239 75 68 0.0 0.0 0.00 0.35 0.00 96 1013.6
20260905114739 75 68 0.0 0.0 0.00 0.35 0.00 96 1013.5
20260905114237 75 68 0.0 1.0 0.00 0.35 0.00 96 1013.6
20260905113737 75 68 0.0 1.0 0.00 0.35 0.00 96 1013.5
20260905113508 75 68 0.0 1.0 0.00 0.35 0.00 96 1013.4
20260905112737 75 68 0.0 0.0 0.00 0.35 0.00 96 1013.4
20260905112237 76 68 0.0 1.0 0.00 0.35 0.00 96 1013.3
20260905112007 76 68 0.0 1.0 0.00 0.35 0.00 96 1013.3
20260905111237 76 68 0.0 1.0 0.00 0.35 0.00 96 1013.2
20260905110737 76 68 0.0 1.0 0.00 0.35 0.00 96 1013.2
20260905110237 76 68 0.0 1.0 0.00 0.35 0.00 96 1013.2
20260905105735 76 68 0.0 1.0 0.00 0.35 0.00 96 1013.1
20260905105235 76 68 0.0 1.0 0.00 0.35 0.00 96 1013.2
20260905105006 75 68 0.0 1.0 0.00 0.35 0.00 96 1013.3
20260905104235 75 68 0.0 1.0 0.00 0.35 0.00 96 1013.3
20260905103735 75 68 0.0 1.0 0.00 0.35 0.00 96 1013.3
20260905103235 75 68 0.0 1.0 0.00 0.35 0.00 96 1013.3
20260905102735 75 68 0.0 1.0 0.00 0.35 0.00 96 1013.2
20260905102239 75 68 1.0 2.0 0.00 0.35 0.00 96 1013.2
20260905102235 75 68 0.0 2.0 0.00 0.35 0.00 96 1013.2
20260905101235 75 77 0.0 2.0 0.00 0.35 0.00 96 1013.3
20260905100732 75 77 0.0 0.0 0.00 0.35 0.00 96 1013.3
20260905100233 75 77 0.0 1.0 0.00 0.35 0.00 96 1013.2
20260905095738 75 77 0.0 1.0 0.00 0.35 0.00 96 1013.2
20260905095232 75 77 0.0 1.0 0.00 0.35 0.00 96 1013.2
20260905094733 75 77 0.0 1.0 0.00 0.35 0.00 96 1013.1
20260905094233 75 77 0.0 0.0 0.00 0.35 0.00 96 1013.1
20260905093733 75 77 0.0 0.0 0.00 0.35 0.00 96 1013.1
20260905093233 75 77 0.0 1.0 0.00 0.35 0.00 96 1013.1
20260905093002 75 77 0.0 1.0 0.00 0.35 0.00 96 1013.0
20260905092231 75 77 0.0 1.0 0.00 0.35 0.00 96 1013.1
20260905091731 75 77 0.0 1.0 0.00 0.35 0.00 96 1013.1
20260905091231 75 77 0.0 1.0 0.00 0.35 0.00 96 1013.1
20260905090731 75 77 0.0 1.0 0.00 0.35 0.00 96 1013.1
20260905090232 75 77 1.0 1.0 0.00 0.35 0.00 96 1013.2
20260905085731 75 77 1.0 1.0 0.00 0.35 0.00 96 1013.1
20260905085230 75 77 1.0 2.0 0.00 0.35 0.00 96 1013.0
20260905084731 75 77 0.0 2.0 0.00 0.35 0.00 96 1013.0
20260905084501 75 75 0.0 0.0 0.00 0.35 0.00 96 1013.1
20260905083729 75 75 0.0 0.0 0.00 0.35 0.00 96 1013.1
20260905083229 75 75 0.0 0.0 0.00 0.35 0.00 96 1013.0
20260905082728 75 75 0.0 0.0 0.00 0.35 0.00 96 1013.0
20260905082229 75 75 0.0 0.0 0.00 0.35 0.00 96 1012.9
20260905081729 75 75 0.0 0.0 0.00 0.35 0.00 96 1012.9
20260905081229 75 75 0.0 0.0 0.00 0.35 0.00 96 1012.8
20260905080729 75 75 0.0 0.0 0.00 0.35 0.00 96 1012.7
20260905080229 75 75 0.0 0.0 0.00 0.35 0.00 96 1012.7
20260905075729 75 75 0.0 0.0 0.00 0.35 0.00 96 1012.8
20260905075228 75 75 0.0 0.0 0.00 0.35 0.00 96 1012.9
20260905074957 75 75 0.0 0.0 0.00 0.35 0.00 96 1012.9
20260905074227 75 75 0.0 0.0 0.00 0.35 0.00 96 1013.0
20260905073727 75 75 0.0 0.0 0.00 0.35 0.00 96 1013.0
20260905073227 75 75 0.0 0.0 0.00 0.35 0.00 96 1013.0
20260905072727 75 75 0.0 0.0 0.00 0.35 0.00 96 1013.0
20260905072227 75 75 0.0 0.0 0.00 0.35 0.00 96 1013.0
20260905071957 75 75 0.0 0.0 0.00 0.35 0.00 96 1012.9
20260905071226 75 75 0.0 0.0 0.00 0.35 0.00 96 1012.9
20260905070725 75 75 0.0 0.0 0.00 0.35 0.00 96 1013.0
20260905070226 75 75 0.0 0.0 0.00 0.35 0.00 96 1013.0
20260905065725 75 75 0.0 0.0 0.00 0.35 0.00 96 1012.9
20260905065225 75 75 0.0 0.0 0.00 0.35 0.00 96 1012.9
20260905064725 75 75 0.0 0.0 0.00 0.35 0.00 95 1012.8
20260905064225 75 75 0.0 0.0 0.00 0.35 0.00 95 1012.8
20260905063729 74 75 0.0 0.0 0.00 0.35 0.00 95 1012.8
20260905063225 74 75 0.0 0.0 0.00 0.35 0.00 95 1012.8
20260905062725 75 75 0.0 0.0 0.00 0.35 0.00 95 1012.8
20260905062455 75 75 0.0 0.0 0.00 0.35 0.00 95 1012.8
20260905061955 75 75 0.0 0.0 0.00 0.35 0.00 95 1012.8
20260905061223 75 75 0.0 0.0 0.00 0.35 0.00 95 1012.7
20260905060724 75 75 0.0 0.0 0.00 0.35 0.00 95 1012.7
20260905060223 75 75 0.0 0.0 0.00 0.35 0.00 95 1012.8
20260905055723 75 75 0.0 0.0 0.00 0.36 0.00 95 1012.8
20260905055223 75 75 0.0 0.0 0.00 0.37 0.00 95 1012.8
20260905054954 75 75 0.0 0.0 0.00 0.39 0.00 95 1012.8
20260905054454 75 75 0.0 0.0 0.00 0.40 0.00 95 1012.8
20260905053723 75 75 0.0 0.0 0.00 0.41 0.00 95 1012.9
20260905053221 75 75 0.0 0.0 0.00 0.42 0.00 95 1013.0
20260905052721 75 75 0.0 0.0 0.00 0.43 0.00 95 1012.8
20260905052220 75 75 0.0 0.0 0.00 0.44 0.00 95 1013.0
20260905051951 75 75 0.0 0.0 0.00 0.45 0.00 95 1013.1
20260905051221 75 75 0.0 0.0 0.00 0.45 0.00 95 1013.2
20260905050721 75 75 0.0 0.0 0.00 0.46 0.00 95 1013.2
20260905050453 75 75 0.0 0.0 0.00 0.46 0.00 95 1013.3
20260905045950 75 75 0.0 0.0 0.00 0.46 0.46 95 1013.5
20260905045219 75 75 0.0 0.0 0.00 0.46 0.46 95 1013.4
20260905044717 75 75 0.0 0.0 0.00 0.46 0.46 95 1013.5
20260905044449 75 75 0.0 0.0 0.00 0.46 0.46 95 1013.5
20260905043717 75 75 0.0 0.0 0.00 0.46 0.46 95 1013.6
20260905043218 75 75 0.0 0.0 0.00 0.46 0.46 95 1013.6
20260905042948 75 75 0.0 0.0 0.00 0.46 0.46 95 1013.7
20260905042217 75 75 0.0 0.0 0.00 0.46 0.46 95 1013.8
20260905041949 75 75 0.0 0.0 0.00 0.46 0.46 95 1013.8
20260905041217 75 75 0.0 0.0 0.00 0.46 0.46 95 1013.8
20260905040717 75 75 0.0 0.0 0.00 0.46 0.46 95 1013.9
20260905040217 75 75 0.0 0.0 0.00 0.46 0.46 95 1013.9
20260905035949 75 75 0.0 0.0 0.00 0.46 0.46 95 1014.0
20260905035216 75 75 0.0 0.0 0.00 0.46 0.46 95 1014.0
20260905034716 76 75 0.0 0.0 0.00 0.46 0.46 95 1014.1
20260905034215 76 75 0.0 0.0 0.00 0.46 0.46 95 1014.1
20260905033947 76 75 0.0 1.0 0.00 0.46 0.46 95 1014.2
20260905033216 76 75 0.0 1.0 0.00 0.46 0.46 95 1014.2
20260905032715 76 75 0.0 1.0 0.00 0.46 0.46 95 1014.2
20260905032216 76 75 0.0 1.0 0.00 0.46 0.46 95 1014.2
20260905031715 76 75 0.0 2.0 0.00 0.46 0.46 94 1014.1
20260905031447 76 75 0.0 2.0 0.00 0.46 0.46 95 1014.2
20260905030715 76 75 0.0 2.0 0.00 0.46 0.46 95 1014.1
20260905030213 76 77 1.0 2.0 0.00 0.46 0.46 95 1014.1
20260905025714 76 77 1.0 2.0 0.00 0.46 0.46 95 1014.2
20260905025213 76 77 1.0 3.0 0.00 0.46 0.46 95 1014.2
20260905024714 76 63 1.0 3.0 0.00 0.46 0.46 95 1014.3
20260905024213 76 55 1.0 3.0 0.00 0.46 0.46 95 1014.3
20260905023712 76 77 0.0 3.0 0.00 0.46 0.46 95 1014.3
20260905023212 76 77 0.0 1.0 0.00 0.46 0.46 95 1014.2
20260905022714 76 77 0.0 1.0 0.00 0.46 0.46 95 1014.1
20260905022710 76 77 1.0 1.0 0.00 0.46 0.46 95 1014.0
20260905021707 76 77 1.0 2.0 0.00 0.46 0.46 95 1014.1
20260905021207 76 77 0.0 2.0 0.00 0.46 0.46 95 1014.0
20260905020707 76 77 0.0 2.0 0.00 0.46 0.46 95 1013.9
20260905020207 76 77 0.0 0.0 0.00 0.46 0.46 95 1014.0
20260905015708 76 77 0.0 0.0 0.00 0.46 0.46 95 1013.9
20260905015207 76 77 0.0 0.0 0.00 0.46 0.46 94 1013.9
20260905014707 76 77 0.0 0.0 0.00 0.46 0.46 94 1013.8
20260905014439 76 77 0.0 0.0 0.00 0.46 0.46 94 1013.8
20260905013707 76 77 0.0 0.0 0.00 0.46 0.46 94 1013.9
20260905013205 76 77 0.0 0.0 0.00 0.46 0.46 94 1013.8
20260905012703 76 77 0.0 0.0 0.00 0.46 0.46 94 1013.8
20260905012204 76 77 0.0 0.0 0.00 0.46 0.46 94 1013.8
20260905011703 76 77 0.0 0.0 0.00 0.46 0.46 94 1013.9
20260905011203 76 77 0.0 0.0 0.00 0.46 0.46 94 1013.9
20260905010703 77 77 0.0 0.0 0.00 0.46 0.46 94 1013.8
20260905010203 77 77 0.0 0.0 0.00 0.46 0.46 94 1013.8
20260905005703 77 77 0.0 0.0 0.00 0.46 0.46 94 1013.8
20260905005203 77 77 0.0 0.0 0.00 0.46 0.46 94 1013.7
20260905004931 77 77 0.0 0.0 0.00 0.46 0.46 94 1013.6
20260905004202 77 77 0.0 0.0 0.00 0.46 0.46 93 1013.6
20260905003701 77 77 0.0 1.0 0.00 0.46 0.46 93 1013.6
20260905003432 77 77 0.0 1.0 0.00 0.46 0.46 93 1013.6
20260905002701 77 77 0.0 1.0 0.00 0.46 0.46 93 1013.6
20260905002202 77 77 0.0 1.0 0.00 0.46 0.46 93 1013.7
20260905001932 77 77 0.0 1.0 0.00 0.46 0.46 93 1013.8
20260905001202 78 77 0.0 1.0 0.00 0.46 0.46 92 1013.8
20260905000701 78 77 0.0 1.0 0.00 0.46 0.46 92 1013.6
20260905000432 78 77 1.0 1.0 0.00 0.46 0.46 91 1013.7
20260904235657 78 77 0.0 1.0 0.00 0.46 0.46 91 1013.6
20260904235158 78 77 0.0 1.0 0.00 0.46 0.46 91 1013.6
20260904234657 78 77 1.0 2.0 0.00 0.46 0.46 90 1013.6
20260904234429 78 77 1.0 2.0 0.00 0.46 0.46 90 1013.6
20260904233658 78 77 1.0 2.0 0.00 0.46 0.46 90 1013.6
20260904233157 78 80 0.0 2.0 0.00 0.46 0.46 90 1013.5
20260904232657 78 80 1.0 2.0 0.00 0.46 0.46 90 1013.5
20260904232157 78 80 1.0 2.0 0.00 0.46 0.46 90 1013.5
20260904231657 78 17 1.0 2.0 0.00 0.46 0.46 91 1013.5
20260904231157 79 338 0.0 2.0 0.00 0.46 0.46 91 1013.5
20260904230657 79 82 0.0 1.0 0.00 0.46 0.46 91 1013.6
20260904230157 79 82 0.0 2.0 0.00 0.46 0.46 91 1013.5
20260904225927 79 82 1.0 2.0 0.00 0.46 0.46 91 1013.5
20260904225157 79 82 1.0 2.0 0.00 0.46 0.46 90 1013.6
20260904224929 79 82 1.0 4.0 0.00 0.46 0.46 91 1013.5
20260904224157 79 81 1.0 4.0 0.00 0.46 0.46 91 1013.5
20260904223658 79 78 1.0 3.0 0.00 0.46 0.46 91 1013.4
20260904223157 79 76 1.0 3.0 0.00 0.46 0.46 91 1013.3
20260904222928 79 44 1.0 3.0 0.00 0.46 0.46 91 1013.3
20260904222155 79 53 2.0 4.0 0.00 0.46 0.46 91 1013.3
20260904221656 79 78 2.0 4.0 0.01 0.46 0.46 91 1013.2
20260904221424 79 38 2.0 4.0 0.06 0.46 0.46 91 1013.2
20260904220653 79 65 2.0 4.0 0.15 0.46 0.46 91 1013.1
20260904220424 80 88 2.0 4.0 0.19 0.46 0.46 91 1013.1
20260904215653 80 46 1.0 4.0 0.26 0.46 0.46 92 1013.1
20260904215153 80 18 1.0 4.0 0.28 0.46 0.46 92 1013.1
20260904214924 80 358 1.0 3.0 0.29 0.46 0.46 92 1013.2
20260904214153 80 79 1.0 2.0 0.29 0.46 0.46 92 1013.3
20260904213653 80 37 1.0 3.0 0.29 0.46 0.46 92 1013.3
20260904213151 80 79 1.0 3.0 0.30 0.46 0.46 92 1013.1
20260904212651 79 80 1.0 3.0 0.30 0.46 0.46 92 1012.9
20260904212151 79 80 2.0 5.0 0.30 0.46 0.46 92 1012.9
20260904211651 79 76 2.0 5.0 0.29 0.45 0.46 91 1013.1
20260904211151 79 66 2.0 4.0 0.24 0.40 0.42 90 1013.3
20260904210651 80 108 2.0 4.0 0.15 0.31 0.31 90 1013.3
20260904210151 80 74 2.0 8.0 0.11 0.27 0.27 89 1013.3
20260904205651 80 79 3.0 8.0 0.04 0.20 0.21 89 1013.5
20260904205151 81 63 3.0 7.0 0.02 0.18 0.18 88 1013.5
20260904204651 82 53 3.0 7.0 0.01 0.17 0.17 85 1013.3
20260904204152 83 32 3.0 6.0 0.01 0.17 0.17 83 1013.5
20260904203651 84 41 3.0 8.0 0.01 0.17 0.17 80 1013.2
20260904203151 85 32 3.0 8.0 0.00 0.16 0.16 79 1013.1
20260904202651 85 356 1.0 4.0 0.00 0.16 0.16 79 1013.1
20260904202151 84 228 1.0 3.0 0.00 0.16 0.16 79 1013.2
20260904201651 84 237 1.0 3.0 0.00 0.16 0.16 78 1013.2
20260904201151 85 27 1.0 4.0 0.00 0.16 0.16 78 1013.3
20260904200923 85 309 2.0 8.0 0.00 0.16 0.16 78 1013.3
20260904200155 85 252 1.0 7.0 0.00 0.16 0.16 82 1013.3
20260904200150 85 240 2.0 8.0 0.00 0.16 0.16 80 1013.3
20260904195156 85 227 2.0 7.0 0.00 0.16 0.16 83 1013.5
20260904194651 85 243 2.0 7.0 0.00 0.16 0.16 82 1013.6
20260904194423 87 331 2.0 6.0 0.00 0.16 0.16 80 1013.5
20260904193651 87 188 2.0 5.0 0.00 0.16 0.16 80 1013.5
20260904193152 87 200 2.0 5.0 0.00 0.16 0.16 79 1013.5
20260904192651 87 184 2.0 8.0 0.00 0.16 0.16 79 1013.6
20260904192151 88 304 2.0 8.0 0.00 0.16 0.16 78 1013.8
20260904191651 88 248 2.0 6.0 0.00 0.16 0.16 79 1013.8
20260904191421 88 252 2.0 8.0 0.00 0.16 0.16 76 1013.7
20260904191254 89 94 2.0 8.0 0.00 0.16 0.16 82 1013.8
20260904190149 88 210 1.0 8.0 0.00 0.16 0.16 79 1013.9
20260904185649 88 318 1.0 5.0 0.00 0.16 0.16 79 1013.8
20260904185421 87 297 1.0 5.0 0.01 0.16 0.16 80 1013.9
20260904184920 88 237 1.0 4.0 0.02 0.16 0.16 82 1014.0
20260904184148 86 181 2.0 5.0 0.04 0.16 0.16 82 1014.0
20260904183647 86 286 1.0 5.0 0.04 0.16 0.16 84 1014.0
20260904183418 86 257 1.0 3.0 0.05 0.16 0.16 86 1014.1
20260904182647 85 203 1.0 2.0 0.05 0.16 0.16 89 1014.1
20260904182418 84 233 0.0 2.0 0.05 0.16 0.16 87 1014.1
20260904181919 84 255 0.0 2.0 0.05 0.16 0.16 89 1014.4
20260904181147 84 215 0.0 3.0 0.05 0.16 0.16 89 1014.6
20260904180918 83 213 0.0 3.0 0.05 0.16 0.16 88 1014.6
20260904180147 83 208 1.0 3.0 0.05 0.16 0.16 87 1014.7
20260904175648 84 199 0.0 3.0 0.05 0.16 0.16 85 1014.6
20260904175417 85 211 0.0 2.0 0.04 0.15 0.15 84 1014.7
20260904174918 85 211 0.0 3.0 0.03 0.14 0.14 82 1014.8
20260904174147 86 211 1.0 6.0 0.01 0.12 0.13 80 1014.8
20260904173647 86 94 2.0 6.0 0.01 0.12 0.12 78 1014.8
20260904173147 87 60 2.0 5.0 0.00 0.11 0.11 76 1014.8
20260904172647 87 56 2.0 5.0 0.00 0.11 0.11 75 1014.8
20260904172417 88 117 2.0 6.0 0.00 0.11 0.11 73 1014.8
20260904171647 88 86 3.0 6.0 0.00 0.11 0.11 73 1014.8
20260904171147 89 71 3.0 7.0 0.00 0.11 0.11 71 1014.7
20260904170645 90 68 2.0 7.0 0.00 0.11 0.11 73 1014.7
20260904170145 90 257 3.0 7.0 0.00 0.11 0.11 72 1014.7
20260904165645 89 55 3.0 6.0 0.00 0.11 0.11 73 1014.9
20260904165146 89 113 2.0 6.0 0.00 0.11 0.11 71 1015.1
20260904164645 89 96 3.0 6.0 0.00 0.11 0.11 72 1015.1
20260904164146 89 70 2.0 6.0 0.00 0.11 0.11 72 1015.3
20260904163645 88 88 2.0 5.0 0.00 0.11 0.11 75 1015.3
20260904163150 87 125 2.0 5.0 0.00 0.11 0.11 75 1015.5
20260904162646 87 106 2.0 7.0 0.00 0.11 0.11 76 1015.5
20260904162145 87 62 2.0 6.0 0.00 0.11 0.11 76 1015.5
20260904161643 87 63 3.0 7.0 0.00 0.11 0.11 75 1015.5
20260904161414 87 69 3.0 7.0 0.00 0.11 0.11 75 1015.6
20260904160644 87 113 2.0 5.0 0.00 0.11 0.11 75 1015.6
20260904160143 86 116 2.0 5.0 0.00 0.11 0.11 77 1015.6
20260904155647 86 101 2.0 7.0 0.00 0.11 0.11 77 1015.6
20260904155643 86 98 2.0 7.0 0.00 0.11 0.11 78 1015.6